AKA180 KLAS-KLAX

Flight info

Callsign AKA180
Flight time N/A
Altitude 22000
Route RADYR2 BLAQQ SHTNR ANJLL4
Aircraft B739/M-SDE2E3FGHIRWXY/LB1

Departure

Time 2026-05-05 03:03
Airport Harry Reid International Airport (KLAS)

Arrival

Time N/A
Airport Los Angeles International Airport (KLAX)
Time Latitude Longitude Altitude Speed Heading
2026-05-05 02:32 36.08231 -115.15317 2105 ft 0 kts 27°
2026-05-05 02:51 36.08231 -115.15318 2105 ft 0 kts 27°
2026-05-05 02:52 36.08231 -115.15317 2105 ft 0 kts 27°
2026-05-05 02:52 36.08231 -115.15318 2105 ft 0 kts 27°
2026-05-05 02:57 36.08230 -115.15318 2105 ft 3 kts 27°
2026-05-05 02:57 36.08177 -115.15351 2107 ft 13 kts 27°
2026-05-05 02:57 36.08140 -115.15422 2108 ft 1 kts 121°
2026-05-05 02:57 36.08125 -115.15383 2109 ft 9 kts 108°
2026-05-05 02:58 36.08110 -115.15299 2107 ft 10 kts 105°
2026-05-05 02:58 36.08092 -115.15215 2107 ft 10 kts 104°
2026-05-05 02:58 36.08071 -115.15135 2107 ft 10 kts 128°
2026-05-05 02:58 36.07999 -115.15109 2110 ft 11 kts 178°
2026-05-05 02:59 36.07920 -115.15110 2113 ft 12 kts 180°
2026-05-05 02:59 36.07836 -115.15092 2119 ft 15 kts 144°
2026-05-05 02:59 36.07794 -115.14950 2115 ft 22 kts 94°
2026-05-05 02:59 36.07778 -115.14735 2106 ft 27 kts 95°
2026-05-05 03:00 36.07762 -115.14499 2100 ft 27 kts 94°
2026-05-05 03:00 36.07750 -115.14278 2093 ft 25 kts 94°
2026-05-05 03:00 36.07753 -115.14066 2087 ft 24 kts 89°
2026-05-05 03:00 36.07753 -115.13875 2084 ft 17 kts 90°
2026-05-05 03:01 36.07751 -115.13718 2080 ft 20 kts 91°
2026-05-05 03:01 36.07747 -115.13543 2076 ft 20 kts 91°
2026-05-05 03:01 36.07724 -115.13378 2074 ft 20 kts 145°
2026-05-05 03:01 36.07642 -115.13381 2072 ft 6 kts 242°
2026-05-05 03:02 36.07641 -115.13432 2074 ft 6 kts 269°
2026-05-05 03:02 36.07641 -115.13694 2082 ft 64 kts 270°
2026-05-05 03:02 36.07637 -115.14524 2102 ft 126 kts 269°
2026-05-05 03:02 36.07636 -115.15821 2151 ft 172 kts 269°
2026-05-05 03:03 36.07652 -115.17326 2630 ft 182 kts 268°
2026-05-05 03:03 36.07671 -115.18959 3221 ft 192 kts 266°
2026-05-05 03:03 36.07672 -115.20589 4119 ft 183 kts 266°
2026-05-05 03:03 36.07660 -115.22118 4770 ft 175 kts 265°
2026-05-05 03:04 36.07615 -115.23589 5047 ft 174 kts 263°
2026-05-05 03:04 36.07532 -115.25084 5022 ft 174 kts 262°
2026-05-05 03:04 36.07059 -115.26387 4803 ft 170 kts 218°
2026-05-05 03:04 36.05950 -115.26743 4884 ft 170 kts 184°
2026-05-05 03:05 36.04796 -115.26507 5034 ft 169 kts 175°
2026-05-05 03:05 36.03655 -115.26175 5154 ft 171 kts 174°
2026-05-05 03:05 36.02489 -115.25708 4796 ft 181 kts 166°
2026-05-05 03:05 36.01451 -115.24912 4608 ft 177 kts 138°
2026-05-05 03:06 36.00859 -115.23531 4322 ft 187 kts 112°
2026-05-05 03:06 36.00712 -115.21976 4183 ft 188 kts 84°
2026-05-05 03:06 36.01195 -115.20431 4045 ft 199 kts 51°
2026-05-05 03:06 36.02311 -115.19456 3617 ft 193 kts 19°
2026-05-05 03:07 36.03515 -115.18876 3313 ft 177 kts 17°
2026-05-05 03:07 36.04619 -115.18338 2949 ft 175 kts 21°
2026-05-05 03:07 36.05749 -115.17717 2727 ft 175 kts 23°
2026-05-05 03:07 36.06826 -115.17104 2378 ft 171 kts 24°
2026-05-05 03:08 36.07894 -115.16486 2155 ft 170 kts 25°
2026-05-05 03:08 36.08862 -115.15928 2113 ft 131 kts 25°
2026-05-05 03:08 36.09542 -115.15540 2098 ft 71 kts 25°
2026-05-05 03:08 36.09766 -115.15411 2093 ft 31 kts 25°
2026-05-05 03:09 36.09876 -115.15449 2092 ft 19 kts 293°
2026-05-05 03:09 36.09922 -115.15599 2092 ft 21 kts 285°
2026-05-05 03:09 36.09816 -115.15733 2095 ft 40 kts 204°
2026-05-05 03:09 36.09346 -115.16000 2105 ft 106 kts 205°
2026-05-05 03:10 36.08504 -115.16479 2130 ft 158 kts 204°
2026-05-05 03:10 36.07477 -115.17045 2612 ft 169 kts 205°
2026-05-05 03:10 36.06319 -115.17633 3062 ft 192 kts 203°